Time,TemperatureF,DewpointF,PressureIn,WindDirection,WindDirectionDegrees,WindSpeedMPH,WindSpeedGustMPH,Humidity,HourlyPrecipIn,Conditions,Clouds,dailyrainin,SoftwareType,DateUTC
2013-02-10 00:03:00,8.7,6.1,30.50,West,268,0.0,0.0,89,0.00,,,0.00,VWS V14.01,2013-02-10 05:03:00,
2013-02-10 00:16:00,8.2,5.6,30.51,West,268,0.0,0.0,89,0.00,,,0.00,VWS V14.01,2013-02-10 05:16:00,
2013-02-10 00:31:00,8.3,6.0,30.50,West,267,0.0,0.0,90,0.00,,,0.00,VWS V14.01,2013-02-10 05:31:00,
2013-02-10 00:46:00,7.3,4.8,30.50,West,267,0.0,0.0,89,0.00,,,0.00,VWS V14.01,2013-02-10 05:46:00,
2013-02-10 01:01:00,7.7,5.4,30.50,West,267,0.0,0.0,90,0.00,,,0.00,VWS V14.01,2013-02-10 06:01:00,
2013-02-10 01:16:00,8.2,5.9,30.50,West,267,0.0,0.0,90,0.00,,,0.00,VWS V14.01,2013-02-10 06:16:00,
2013-02-10 01:31:00,8.0,5.4,30.50,West,267,0.0,0.0,89,0.00,,,0.00,VWS V14.01,2013-02-10 06:31:00,
2013-02-10 01:46:00,7.9,5.3,30.51,West,267,0.0,0.0,89,0.00,,,0.00,VWS V14.01,2013-02-10 06:46:00,
2013-02-10 02:01:00,7.6,5.0,30.51,West,267,0.0,0.0,89,0.00,,,0.00,VWS V14.01,2013-02-10 07:01:00,
2013-02-10 02:16:00,7.4,4.8,30.50,West,267,0.0,0.0,89,0.00,,,0.00,VWS V14.01,2013-02-10 07:16:00,
2013-02-10 02:31:00,7.1,4.6,30.50,West,267,0.0,0.0,89,0.00,,,0.00,VWS V14.01,2013-02-10 07:31:00,
2013-02-10 02:46:00,6.7,4.2,30.50,West,267,0.0,0.0,89,0.00,,,0.00,VWS V14.01,2013-02-10 07:46:00,
2013-02-10 03:01:00,6.4,3.9,30.50,West,267,0.0,0.0,89,0.00,,,0.00,VWS V14.01,2013-02-10 08:01:00,
2013-02-10 03:16:00,6.3,3.8,30.49,West,267,0.0,0.0,89,0.00,,,0.00,VWS V14.01,2013-02-10 08:16:00,
2013-02-10 03:31:00,5.0,2.2,30.50,West,267,0.0,0.0,88,0.00,,,0.00,VWS V14.01,2013-02-10 08:31:00,
2013-02-10 03:46:00,4.3,1.5,30.50,West,267,0.0,0.0,88,0.00,,,0.00,VWS V14.01,2013-02-10 08:46:00,
2013-02-10 04:01:00,6.0,3.7,30.49,West,267,0.0,0.0,90,0.00,,,0.00,VWS V14.01,2013-02-10 09:01:00,
2013-02-10 04:16:00,6.3,3.8,30.49,West,266,0.0,0.0,89,0.00,,,0.00,VWS V14.01,2013-02-10 09:16:00,
2013-02-10 04:31:00,6.0,3.5,30.50,West,266,0.0,0.0,89,0.00,,,0.00,VWS V14.01,2013-02-10 09:31:00,
2013-02-10 04:46:00,5.8,3.3,30.50,West,265,0.0,0.0,89,0.00,,,0.00,VWS V14.01,2013-02-10 09:46:00,
2013-02-10 05:01:00,5.7,3.2,30.50,West,266,0.0,0.0,89,0.00,,,0.00,VWS V14.01,2013-02-10 10:01:00,
2013-02-10 05:16:00,5.9,3.4,30.49,West,265,0.0,0.0,89,0.00,,,0.00,VWS V14.01,2013-02-10 10:16:00,
2013-02-10 05:31:00,5.3,2.5,30.48,West,266,0.0,0.0,88,0.00,,,0.00,VWS V14.01,2013-02-10 10:31:00,
2013-02-10 05:46:00,4.7,1.9,30.48,West,266,0.0,0.0,88,0.00,,,0.00,VWS V14.01,2013-02-10 10:46:00,
2013-02-10 06:01:00,5.1,2.6,30.48,West,265,0.0,0.0,89,0.00,,,0.00,VWS V14.01,2013-02-10 11:01:00,
2013-02-10 06:16:00,5.5,3.0,30.48,West,260,0.0,0.0,89,0.00,,,0.00,VWS V14.01,2013-02-10 11:16:00,
2013-02-10 06:31:00,5.7,3.2,30.48,West,260,0.0,0.0,89,0.00,,,0.00,VWS V14.01,2013-02-10 11:31:00,
2013-02-10 06:46:00,5.3,2.5,30.50,West,260,0.0,0.0,88,0.00,,,0.00,VWS V14.01,2013-02-10 11:46:00,
2013-02-10 07:01:00,5.9,3.4,30.50,SSE,166,0.0,0.0,89,0.00,,,0.00,VWS V14.01,2013-02-10 12:01:00,
2013-02-10 07:16:00,6.3,3.8,30.50,South,180,0.0,0.0,89,0.00,,,0.00,VWS V14.01,2013-02-10 12:16:00,
2013-02-10 07:31:00,6.4,3.6,30.50,South,180,0.0,0.0,88,0.00,,,0.00,VWS V14.01,2013-02-10 12:31:00,
2013-02-10 07:46:00,6.3,3.5,30.50,South,181,0.0,0.0,88,0.00,,,0.00,VWS V14.01,2013-02-10 12:46:00,
2013-02-10 08:01:00,8.0,5.7,30.49,South,180,0.0,0.0,90,0.00,,,0.00,VWS V14.01,2013-02-10 13:01:00,
2013-02-10 08:16:00,8.7,6.1,30.50,South,181,0.0,0.0,89,0.00,,,0.00,VWS V14.01,2013-02-10 13:16:00,
2013-02-10 08:31:00,9.6,7.3,30.51,South,184,0.0,0.0,90,0.00,,,0.00,VWS V14.01,2013-02-10 13:31:00,
2013-02-10 08:46:00,11.1,8.8,30.51,SSW,203,0.0,0.0,90,0.00,,,0.00,VWS V14.01,2013-02-10 13:46:00,
2013-02-10 09:01:00,12.5,10.1,30.50,SSW,203,0.0,0.0,90,0.00,,,0.00,VWS V14.01,2013-02-10 14:01:00,
2013-02-10 09:16:00,13.8,11.2,30.50,South,171,0.0,0.0,89,0.00,,,0.00,VWS V14.01,2013-02-10 14:16:00,
2013-02-10 09:31:00,14.9,11.7,30.50,SSW,196,0.0,0.0,87,0.00,,,0.00,VWS V14.01,2013-02-10 14:31:00,
2013-02-10 09:46:00,16.3,12.9,30.49,SSW,194,0.0,0.0,86,0.00,,,0.00,VWS V14.01,2013-02-10 14:46:00,
2013-02-10 10:01:00,17.0,13.0,30.49,South,173,0.0,0.0,84,0.00,,,0.00,VWS V14.01,2013-02-10 15:01:00,
2013-02-10 10:16:00,18.3,14.3,30.47,SSE,165,0.0,0.0,84,0.00,,,0.00,VWS V14.01,2013-02-10 15:16:00,
2013-02-10 10:31:00,20.7,16.9,30.46,SSE,166,0.0,0.0,85,0.00,,,0.00,VWS V14.01,2013-02-10 15:31:00,
2013-02-10 10:46:00,21.7,17.1,30.46,SSE,166,0.0,0.0,82,0.00,,,0.00,VWS V14.01,2013-02-10 15:46:00,
2013-02-10 11:01:00,22.1,16.9,30.45,SE,136,0.0,0.0,80,0.00,,,0.00,VWS V14.01,2013-02-10 16:01:00,
2013-02-10 11:16:00,22.4,17.5,30.43,SE,142,0.0,0.0,81,0.00,,,0.00,VWS V14.01,2013-02-10 16:16:00,
2013-02-10 11:31:00,22.8,17.9,30.43,SSE,153,0.0,0.0,81,0.00,,,0.00,VWS V14.01,2013-02-10 16:31:00,
2013-02-10 11:46:00,24.0,19.6,30.42,SSE,155,0.0,0.0,83,0.00,,,0.00,VWS V14.01,2013-02-10 16:46:00,
2013-02-10 12:01:00,25.0,19.7,30.40,SSE,152,0.0,0.0,80,0.00,,,0.00,VWS V14.01,2013-02-10 17:01:00,
2013-02-10 12:16:00,25.6,20.6,30.40,SSE,148,0.0,0.0,81,0.00,,,0.00,VWS V14.01,2013-02-10 17:16:00,
2013-02-10 12:31:00,26.0,21.3,30.38,SE,144,0.0,0.0,82,0.00,,,0.00,VWS V14.01,2013-02-10 17:31:00,
2013-02-10 12:46:00,26.2,21.2,30.38,South,173,0.0,0.0,81,0.00,,,0.00,VWS V14.01,2013-02-10 17:46:00,
2013-02-10 13:01:00,26.4,21.4,30.37,SSE,151,0.0,0.0,81,0.00,,,0.00,VWS V14.01,2013-02-10 18:01:00,
2013-02-10 13:16:00,27.0,22.2,30.37,SSE,149,0.0,0.0,82,0.00,,,0.00,VWS V14.01,2013-02-10 18:16:00,
2013-02-10 13:31:00,28.1,23.6,30.36,SE,146,0.0,0.0,83,0.00,,,0.00,VWS V14.01,2013-02-10 18:31:00,
2013-02-10 13:46:00,28.5,23.7,30.33,SE,142,0.0,0.0,82,0.00,,,0.00,VWS V14.01,2013-02-10 18:46:00,
2013-02-10 14:01:00,29.6,25.1,30.33,SSE,148,3.0,5.0,83,0.00,,,0.00,VWS V14.01,2013-02-10 19:01:00,
2013-02-10 14:16:00,30.5,25.7,30.33,SE,140,3.0,6.0,82,0.00,,,0.00,VWS V14.01,2013-02-10 19:16:00,
2013-02-10 14:31:00,30.7,25.0,30.32,SE,141,3.0,7.0,79,0.00,,,0.00,VWS V14.01,2013-02-10 19:31:00,
2013-02-10 14:46:00,31.3,25.9,30.32,SSE,152,0.0,5.0,80,0.00,,,0.00,VWS V14.01,2013-02-10 19:46:00,
2013-02-10 15:01:00,31.5,26.0,30.31,SSE,151,0.0,4.0,80,0.00,,,0.00,VWS V14.01,2013-02-10 20:01:00,
2013-02-10 15:16:00,32.0,26.5,30.30,SSE,153,1.0,6.0,80,0.00,,,0.00,VWS V14.01,2013-02-10 20:16:00,
2013-02-10 15:31:00,32.7,26.9,30.29,SE,142,1.0,3.0,79,0.00,,,0.00,VWS V14.01,2013-02-10 20:31:00,
2013-02-10 15:46:00,33.4,27.6,30.29,East,90,0.0,4.0,79,0.00,,,0.00,VWS V14.01,2013-02-10 20:46:00,
2013-02-10 16:01:00,33.8,28.0,30.29,SSE,161,1.0,4.0,79,0.00,,,0.00,VWS V14.01,2013-02-10 21:01:00,
2013-02-10 16:16:00,33.9,28.1,30.28,South,179,1.0,4.0,79,0.00,,,0.00,VWS V14.01,2013-02-10 21:16:00,
2013-02-10 16:31:00,33.3,27.8,30.28,East,94,0.0,4.0,80,0.00,,,0.00,VWS V14.01,2013-02-10 21:31:00,
2013-02-10 16:46:00,32.1,27.2,30.27,North,360,0.0,3.0,82,0.00,,,0.00,VWS V14.01,2013-02-10 21:46:00,
2013-02-10 17:01:00,31.0,26.5,30.26,North,360,0.0,1.0,83,0.00,,,0.00,VWS V14.01,2013-02-10 22:01:00,
2013-02-10 17:16:00,30.2,26.0,30.27,North,360,0.0,0.0,84,0.00,,,0.00,VWS V14.01,2013-02-10 22:16:00,
2013-02-10 17:31:00,29.6,25.6,30.26,North,360,0.0,1.0,85,0.00,,,0.00,VWS V14.01,2013-02-10 22:31:00,
2013-02-10 17:46:00,29.0,25.4,30.25,North,360,0.0,1.0,86,0.00,,,0.00,VWS V14.01,2013-02-10 22:46:00,
2013-02-10 18:01:00,28.8,25.1,30.24,North,360,0.0,1.0,86,0.00,,,0.00,VWS V14.01,2013-02-10 23:01:00,
2013-02-10 18:16:00,28.7,24.8,30.23,ESE,122,2.0,2.0,85,0.00,,,0.00,VWS V14.01,2013-02-10 23:16:00,
2013-02-10 18:31:00,28.9,24.7,30.23,SE,135,0.0,3.0,84,0.00,,,0.00,VWS V14.01,2013-02-10 23:31:00,
2013-02-10 18:46:00,29.1,24.3,30.23,SE,128,0.0,5.0,82,0.00,,,0.00,VWS V14.01,2013-02-10 23:46:00,
2013-02-10 19:01:00,29.0,24.2,30.21,SE,129,0.0,3.0,82,0.00,,,0.00,VWS V14.01,2013-02-11 00:01:00,
2013-02-10 19:16:00,29.0,23.9,30.20,SSE,161,1.0,4.0,81,0.00,,,0.00,VWS V14.01,2013-02-11 00:16:00,
2013-02-10 19:31:00,29.4,23.7,30.20,South,186,3.0,7.0,79,0.00,,,0.00,VWS V14.01,2013-02-11 00:31:00,
2013-02-10 19:46:00,29.9,24.5,30.20,SE,127,2.0,6.0,80,0.00,,,0.00,VWS V14.01,2013-02-11 00:46:00,
2013-02-10 20:01:00,30.5,24.8,30.18,SE,144,1.0,7.0,79,0.00,,,0.00,VWS V14.01,2013-02-11 01:01:00,
2013-02-10 20:16:00,31.0,25.0,30.16,SE,145,3.0,8.0,78,0.00,,,0.00,VWS V14.01,2013-02-11 01:16:00,
2013-02-10 20:31:00,31.3,25.6,30.15,SSE,167,3.0,7.0,79,0.00,,,0.00,VWS V14.01,2013-02-11 01:31:00,
2013-02-10 20:46:00,32.1,26.0,30.15,SSE,148,7.0,7.0,78,0.00,,,0.00,VWS V14.01,2013-02-11 01:46:00,
2013-02-10 21:01:00,32.8,26.4,30.15,South,180,7.0,7.0,77,0.00,,,0.00,VWS V14.01,2013-02-11 02:01:00,
2013-02-10 21:16:00,33.6,26.9,30.14,SE,142,4.0,7.0,76,0.00,,,0.00,VWS V14.01,2013-02-11 02:16:00,
2013-02-10 21:31:00,34.3,26.9,30.12,South,173,3.0,8.0,74,0.00,,,0.00,VWS V14.01,2013-02-11 02:31:00,
2013-02-10 21:46:00,34.7,27.3,30.12,South,183,5.0,8.0,74,0.00,,,0.00,VWS V14.01,2013-02-11 02:46:00,
2013-02-10 22:01:00,34.6,27.2,30.12,South,184,5.0,8.0,74,0.00,,,0.00,VWS V14.01,2013-02-11 03:01:00,
2013-02-10 22:16:00,34.7,27.3,30.11,SSW,196,6.0,9.0,74,0.00,,,0.00,VWS V14.01,2013-02-11 03:16:00,
2013-02-10 22:31:00,34.7,27.3,30.09,SSE,163,8.0,10.0,74,0.00,,,0.00,VWS V14.01,2013-02-11 03:31:00,
2013-02-10 22:46:00,34.7,27.0,30.07,SSE,159,4.0,11.0,73,0.00,,,0.00,VWS V14.01,2013-02-11 03:46:00,
2013-02-10 23:01:00,34.5,27.1,30.06,SSE,168,5.0,13.0,74,0.00,,,0.00,VWS V14.01,2013-02-11 04:01:00,
2013-02-10 23:16:00,34.5,27.1,30.07,SSE,159,7.0,9.0,74,0.00,,,0.00,VWS V14.01,2013-02-11 04:16:00,
2013-02-10 23:31:00,34.9,27.1,30.06,South,171,7.0,13.0,73,0.00,,,0.00,VWS V14.01,2013-02-11 04:31:00,
2013-02-10 23:46:00,35.1,27.0,30.06,South,188,5.0,9.0,72,0.00,,,0.00,VWS V14.01,2013-02-11 04:46:00,